User: anonymous   Login
Location: Oshawa
(43.9000°N, 78.8670°W)
Time: 00:14:44
(UTC-04:00)
Language:

Cosmos 1821 Rocket - Orbit

View from above orbital plane
View from above orbital plane
View from above satellite
View from above satellite

Ground track
Ground track

The orbit data is extracted from the following two-line orbital elements,

1 17526U 87017B   15114.53672851  .00000177  00000-0  16440-3 0  9996
2 17526 082.9010 266.5169 0040063 352.6637 073.8575 13.76747702398383
Epoch (UTC): 24 April 2015 12:52:53
Eccentricity: 0.0040063
inclination: 82.9010°
perigee height: 946 km
apogee height: 1005 km
right ascension of ascending node: 266.5169°
argument of perigee: 352.6637°
revolutions per day: 13.76747702
mean anomaly at epoch: 73.8575°
orbit number at epoch: 39838

The dashed part of the orbit path shows where the satellite is in the earth's shadow,  

DLR